Ocoee 3 Observed Data For Previous 48 Hours

Caption
Day and Hour Reservoir Elevation (behind dam)* Tailwater Elevation (below dam)* Average Hourly Discharge*
1/16/2020 2 AM EST 1,430.73 1,120.53 1,804
1/16/2020 3 AM EST 1,430.56 1,120.54 1,805
1/16/2020 4 AM EST 1,430.33 1,120.61 1,803
1/16/2020 5 AM EST 1,430.15 1,120.57 1,805
1/16/2020 6 AM EST 1,429.93 1,120.58 1,801
1/16/2020 7 AM EST 1,429.70 1,120.51 1,805
1/16/2020 8 AM EST 1,429.60 1,119.86 1,483
1/16/2020 9 AM EST 1,429.50 1,119.82 1,479
1/16/2020 10 AM EST 1,429.39 1,119.74 1,477
1/16/2020 11 AM EST 1,429.33 1,120.72 1,808
1/16/2020 12 PM EST 1,429.54 1,120.61 1,820
1/16/2020 1 PM EST 1,429.85 1,120.59 1,826
1/16/2020 2 PM EST 1,430.18 1,120.63 1,827
1/16/2020 3 PM EST 1,430.50 1,120.49 1,830
1/16/2020 4 PM EST 1,430.83 1,120.58 1,828
1/16/2020 5 PM EST 1,431.11 1,120.62 1,835
1/16/2020 6 PM EST 1,431.33 1,120.56 1,823
1/16/2020 7 PM EST 1,431.42 1,120.50 1,822
1/16/2020 8 PM EST 1,431.38 1,120.55 1,820
1/16/2020 9 PM EST 1,431.28 1,120.56 1,823
1/16/2020 10 PM EST 1,431.13 1,120.59 1,820
1/16/2020 11 PM EST 1,431.13 1,120.42 1,819
1/17/2020 12 AM EST 1,431.30 1,120.53 1,821
1/17/2020 1 AM EST 1,431.53 1,120.43 1,817
1/17/2020 2 AM EST 1,431.76 1,120.68 1,820
1/17/2020 3 AM EST 1,432.01 1,120.46 1,819
1/17/2020 4 AM EST 1,432.23 1,120.41 1,823
1/17/2020 5 AM EST 1,432.38 1,120.57 1,822
1/17/2020 6 AM EST 1,432.40 1,120.70 1,821
1/17/2020 7 AM EST 1,432.33 1,120.50 1,819
1/17/2020 8 AM EST 1,432.21 1,120.53 1,820
1/17/2020 9 AM EST 1,432.07 1,120.51 1,814
1/17/2020 10 AM EST 1,432.09 1,120.48 1,815
1/17/2020 11 AM EST 1,432.25 1,120.65 1,816
1/17/2020 12 PM EST 1,432.45 1,120.29 1,819
1/17/2020 1 PM EST 1,432.66 1,120.32 1,815
1/17/2020 2 PM EST 1,432.76 1,120.51 2,160
1/17/2020 3 PM EST 1,432.87 1,121.70 2,162
1/17/2020 4 PM EST 1,432.99 1,121.61 2,161
1/17/2020 5 PM EST 1,433.10 1,121.53 2,159
1/17/2020 6 PM EST 1,433.20 1,121.49 2,161
1/17/2020 7 PM EST 1,433.31 1,121.42 2,158
1/17/2020 8 PM EST 1,433.41 1,121.45 2,169
1/17/2020 9 PM EST 1,433.50 1,121.49 2,170
1/17/2020 10 PM EST 1,433.60 1,121.38 2,174
1/17/2020 11 PM EST 1,433.70 1,121.41 2,170
1/18/2020 12 AM EST 1,433.79 1,121.53 2,171
1/18/2020 1 AM EST 1,433.87 1,121.45 2,170
1/18/2020 2 AM EST 1,433.90 1,121.37 1,890
1/18/2020 3 AM EST 1,433.84 1,120.84 1,882
1/18/2020 4 AM EST 1,433.71 1,120.86 1,881
1/18/2020 5 AM EST 1,433.55 1,120.77 1,878
1/18/2020 6 AM EST 1,433.36 1,120.74 1,880
1/18/2020 7 AM EST 1,433.16 1,120.60 1,878
1/18/2020 8 AM EST 1,432.96 1,120.80 1,876
1/18/2020 9 AM EST 1,432.75 1,120.80 1,871
1/18/2020 10 AM EST 1,432.53 1,120.92 1,874
1/18/2020 11 AM EST 1,432.32 1,120.71 1,872
1/18/2020 12 PM EST 1,432.11 1,120.81 1,871
1/18/2020 1 PM EST 1,431.86 1,120.78 1,868
1/18/2020 2 PM EST 1,431.63 1,120.77 1,865
1/18/2020 3 PM EST 1,431.39 1,120.90 1,866
1/18/2020 4 PM EST 1,431.13 1,120.75 1,863
1/18/2020 5 PM EST 1,430.86 1,120.61 1,863
1/18/2020 6 PM EST 1,430.59 1,120.95 1,861
1/18/2020 7 PM EST 1,430.30 1,120.83 1,866

Elevations are in feet above sea level. Discharges are in cubic feet per second and are reported at the end of the hour.